TURKSAT 5B

Last updated on Tue Jul 08 2025 00:02:48 GMT+0000 (Coordinated Universal Time)

1 50212U 21126A 25188.57192870 .00000163 00000+0 00000+0 0 9993 2 50212 0.0713 333.9416 0002716 29.4031 170.3579 1.00272170 12844
UTC large
Height (km)
Speed (km/s)
/
Latitude / Longitude
Inclination (degrees)
Orbital Period (minutes)
Azimuth
Elevation
Range (km)
Doppler Factor

Next 0 passes for location: London (51.5072 / 0.1276)

Sorry there are no passes over London.